Time,TemperatureF,DewpointF,PressureIn,WindDirection,WindDirectionDegrees,WindSpeedMPH,WindSpeedGustMPH,Humidity,HourlyPrecipIn,Conditions,Clouds,dailyrainin,SoftwareType,DateUTC
2013-06-19 00:00:00,66.9,46.6,28.73,ESE,112,2.7,4.9,48,0.00,,,0.00,VWS V14.01,2013-06-19 05:00:00,
2013-06-19 00:05:00,66.9,46.6,28.73,East,90,3.4,4.9,48,0.00,,,0.00,VWS V14.01,2013-06-19 05:05:00,
2013-06-19 00:10:00,66.7,46.5,28.70,ENE,68,3.1,4.0,48,0.00,,,0.00,VWS V14.01,2013-06-19 05:10:00,
2013-06-19 00:15:00,66.9,47.2,28.70,ESE,112,4.7,4.7,49,0.00,,,0.00,VWS V14.01,2013-06-19 05:15:00,
2013-06-19 00:20:00,66.9,47.7,28.70,ENE,68,5.8,5.8,50,0.00,,,0.00,VWS V14.01,2013-06-19 05:20:00,
2013-06-19 00:25:00,67.1,47.9,28.70,East,90,4.3,5.8,50,0.00,,,0.00,VWS V14.01,2013-06-19 05:25:00,
2013-06-19 00:30:00,67.1,47.9,28.70,ENE,68,3.8,6.0,50,0.00,,,0.00,VWS V14.01,2013-06-19 05:30:00,
2013-06-19 00:35:00,67.1,48.4,28.70,ESE,112,3.4,6.0,51,0.00,,,0.00,VWS V14.01,2013-06-19 05:35:00,
2013-06-19 00:40:00,67.1,48.4,28.73,ESE,112,3.6,5.4,51,0.00,,,0.00,VWS V14.01,2013-06-19 05:40:00,
2013-06-19 00:45:00,66.9,48.2,28.73,East,90,6.0,6.3,51,0.00,,,0.00,VWS V14.01,2013-06-19 05:45:00,
2013-06-19 00:50:00,66.7,48.1,28.73,ENE,68,4.3,6.0,51,0.00,,,0.00,VWS V14.01,2013-06-19 05:50:00,
2013-06-19 00:55:00,66.7,48.6,28.70,East,90,4.0,4.9,52,0.00,,,0.00,VWS V14.01,2013-06-19 05:55:00,
2013-06-19 01:00:00,66.7,48.6,28.70,ESE,112,4.0,5.8,52,0.00,,,0.00,VWS V14.01,2013-06-19 06:00:00,
2013-06-19 01:05:00,66.6,48.4,28.70,ENE,68,4.9,5.6,52,0.00,,,0.00,VWS V14.01,2013-06-19 06:05:00,
2013-06-19 01:10:00,66.6,48.4,28.70,ENE,68,3.8,4.9,52,0.00,,,0.00,VWS V14.01,2013-06-19 06:10:00,
2013-06-19 01:15:00,66.4,48.8,28.70,East,90,2.7,4.3,53,0.00,,,0.00,VWS V14.01,2013-06-19 06:15:00,
2013-06-19 01:20:00,66.2,48.6,28.70,ENE,68,3.1,5.6,53,0.00,,,0.00,VWS V14.01,2013-06-19 06:20:00,
2013-06-19 01:25:00,66.2,48.6,28.70,ESE,112,2.7,4.0,53,0.00,,,0.00,VWS V14.01,2013-06-19 06:25:00,
2013-06-19 01:30:00,66.0,48.9,28.70,ESE,112,2.5,4.3,54,0.00,,,0.00,VWS V14.01,2013-06-19 06:30:00,
2013-06-19 01:35:00,65.7,49.1,28.70,ESE,112,3.6,3.6,55,0.00,,,0.00,VWS V14.01,2013-06-19 06:35:00,
2013-06-19 01:40:00,65.7,49.1,28.70,ENE,68,2.5,5.4,55,0.00,,,0.00,VWS V14.01,2013-06-19 06:40:00,
2013-06-19 01:45:00,65.7,49.1,28.70,ESE,112,3.6,4.9,55,0.00,,,0.00,VWS V14.01,2013-06-19 06:45:00,
2013-06-19 01:50:00,65.7,49.6,28.70,ESE,112,3.8,4.9,56,0.00,,,0.00,VWS V14.01,2013-06-19 06:50:00,
2013-06-19 01:55:00,65.5,49.4,28.70,ESE,112,3.6,5.8,56,0.00,,,0.00,VWS V14.01,2013-06-19 06:55:00,
2013-06-19 02:00:00,65.5,49.4,28.70,East,90,4.7,5.6,56,0.00,,,0.00,VWS V14.01,2013-06-19 07:00:00,
2013-06-19 02:05:00,65.7,49.1,28.70,ESE,112,3.8,5.6,55,0.00,,,0.00,VWS V14.01,2013-06-19 07:05:00,
2013-06-19 02:10:00,65.7,49.1,28.70,ENE,68,3.8,5.8,55,0.00,,,0.00,VWS V14.01,2013-06-19 07:10:00,
2013-06-19 02:15:00,65.7,49.1,28.70,ENE,68,4.5,7.4,55,0.00,,,0.00,VWS V14.01,2013-06-19 07:15:00,
2013-06-19 02:20:00,65.5,49.4,28.70,East,90,5.6,5.6,56,0.00,,,0.00,VWS V14.01,2013-06-19 07:20:00,
2013-06-19 02:25:00,65.3,49.2,28.70,ESE,112,5.4,6.3,56,0.00,,,0.00,VWS V14.01,2013-06-19 07:25:00,
2013-06-19 02:30:00,65.1,49.0,28.70,ESE,112,4.0,5.4,56,0.00,,,0.00,VWS V14.01,2013-06-19 07:30:00,
2013-06-19 02:35:00,65.1,49.5,28.70,ESE,112,4.7,7.2,57,0.00,,,0.00,VWS V14.01,2013-06-19 07:35:00,
2013-06-19 02:40:00,65.1,49.5,28.70,East,90,3.8,7.2,57,0.00,,,0.00,VWS V14.01,2013-06-19 07:40:00,
2013-06-19 02:45:00,64.9,49.8,28.70,ESE,112,3.6,4.9,58,0.00,,,0.00,VWS V14.01,2013-06-19 07:45:00,
2013-06-19 02:50:00,64.8,49.7,28.70,East,90,4.3,5.8,58,0.00,,,0.00,VWS V14.01,2013-06-19 07:50:00,
2013-06-19 02:55:00,64.8,49.7,28.70,East,90,6.0,6.7,58,0.00,,,0.00,VWS V14.01,2013-06-19 07:55:00,
2013-06-19 03:00:00,64.6,50.0,28.70,ESE,112,6.3,6.3,59,0.00,,,0.00,VWS V14.01,2013-06-19 08:00:00,
2013-06-19 03:05:00,64.6,50.4,28.70,ESE,112,3.1,6.3,60,0.00,,,0.00,VWS V14.01,2013-06-19 08:05:00,
2013-06-19 03:10:00,64.2,50.1,28.70,ESE,112,3.4,4.3,60,0.00,,,0.00,VWS V14.01,2013-06-19 08:10:00,
2013-06-19 03:15:00,63.7,49.5,28.70,SE,135,2.2,3.4,60,0.00,,,0.00,VWS V14.01,2013-06-19 08:15:00,
2013-06-19 03:20:00,63.5,49.4,28.70,ESE,112,2.7,2.7,60,0.00,,,0.00,VWS V14.01,2013-06-19 08:20:00,
2013-06-19 03:25:00,63.3,50.5,28.70,ESE,112,1.6,4.0,63,0.00,,,0.00,VWS V14.01,2013-06-19 08:25:00,
2013-06-19 03:30:00,63.1,50.3,28.70,ESE,112,2.0,2.9,63,0.00,,,0.00,VWS V14.01,2013-06-19 08:30:00,
2013-06-19 03:35:00,63.0,50.6,28.70,SE,135,2.7,3.4,64,0.00,,,0.00,VWS V14.01,2013-06-19 08:35:00,
2013-06-19 03:40:00,62.8,51.3,28.70,ESE,112,3.4,3.8,66,0.00,,,0.00,VWS V14.01,2013-06-19 08:40:00,
2013-06-19 03:45:00,62.8,51.3,28.70,ESE,112,2.7,4.0,66,0.00,,,0.00,VWS V14.01,2013-06-19 08:45:00,
2013-06-19 03:50:00,62.8,51.7,28.70,ESE,112,3.1,5.6,67,0.00,,,0.00,VWS V14.01,2013-06-19 08:50:00,
2013-06-19 03:55:00,62.8,52.1,28.70,ESE,112,2.9,4.3,68,0.00,,,0.00,VWS V14.01,2013-06-19 08:55:00,
2013-06-19 04:00:00,62.6,51.9,28.70,ESE,112,3.4,4.3,68,0.00,,,0.00,VWS V14.01,2013-06-19 09:00:00,
2013-06-19 04:05:00,62.6,51.9,28.70,ESE,112,3.1,4.3,68,0.00,,,0.00,VWS V14.01,2013-06-19 09:05:00,
2013-06-19 04:10:00,62.4,51.7,28.70,ESE,112,3.1,3.8,68,0.00,,,0.00,VWS V14.01,2013-06-19 09:10:00,
2013-06-19 04:15:00,62.4,52.1,28.70,East,90,3.4,4.3,69,0.00,,,0.00,VWS V14.01,2013-06-19 09:15:00,
2013-06-19 04:20:00,62.4,52.1,28.70,ESE,112,1.6,3.4,69,0.00,,,0.00,VWS V14.01,2013-06-19 09:20:00,
2013-06-19 04:25:00,62.2,52.0,28.70,ESE,112,2.5,3.8,69,0.00,,,0.00,VWS V14.01,2013-06-19 09:25:00,
2013-06-19 04:30:00,62.2,51.6,28.70,ENE,68,1.6,3.1,68,0.00,,,0.00,VWS V14.01,2013-06-19 09:30:00,
2013-06-19 04:35:00,62.1,51.8,28.70,ESE,112,3.1,4.0,69,0.00,,,0.00,VWS V14.01,2013-06-19 09:35:00,
2013-06-19 04:40:00,62.1,52.2,28.70,ESE,112,2.5,5.6,70,0.00,,,0.00,VWS V14.01,2013-06-19 09:40:00,
2013-06-19 04:45:00,62.2,52.7,28.70,ESE,112,3.8,5.6,71,0.00,,,0.00,VWS V14.01,2013-06-19 09:45:00,
2013-06-19 04:50:00,62.4,52.9,28.70,ENE,68,3.1,5.8,71,0.00,,,0.00,VWS V14.01,2013-06-19 09:50:00,
2013-06-19 04:55:00,62.6,52.7,28.70,ESE,112,5.4,6.0,70,0.00,,,0.00,VWS V14.01,2013-06-19 09:55:00,
2013-06-19 05:00:00,62.6,53.1,28.70,ESE,112,4.7,6.3,71,0.00,,,0.00,VWS V14.01,2013-06-19 10:00:00,
2013-06-19 05:05:00,62.6,52.7,28.70,ESE,112,2.5,5.4,70,0.00,,,0.00,VWS V14.01,2013-06-19 10:05:00,
2013-06-19 05:10:00,62.4,52.9,28.70,ESE,112,3.8,4.7,71,0.00,,,0.00,VWS V14.01,2013-06-19 10:10:00,
2013-06-19 05:15:00,62.4,52.9,28.70,ESE,112,4.0,4.7,71,0.00,,,0.00,VWS V14.01,2013-06-19 10:15:00,
2013-06-19 05:20:00,62.4,52.9,28.70,ESE,112,2.7,4.9,71,0.00,,,0.00,VWS V14.01,2013-06-19 10:20:00,
2013-06-19 05:25:00,62.2,52.7,28.70,ESE,112,2.9,4.0,71,0.00,,,0.00,VWS V14.01,2013-06-19 10:25:00,
2013-06-19 05:30:00,62.2,52.7,28.70,East,90,4.5,4.5,71,0.00,,,0.00,VWS V14.01,2013-06-19 10:30:00,
2013-06-19 05:35:00,62.2,53.1,28.70,ESE,112,3.4,4.5,72,0.00,,,0.00,VWS V14.01,2013-06-19 10:35:00,
2013-06-19 05:40:00,62.1,52.6,28.70,ESE,112,2.9,4.0,71,0.00,,,0.00,VWS V14.01,2013-06-19 10:40:00,
2013-06-19 05:45:00,62.1,52.6,28.70,ESE,112,3.4,3.6,71,0.00,,,0.00,VWS V14.01,2013-06-19 10:45:00,
2013-06-19 05:50:00,61.9,52.4,28.70,ESE,112,2.7,4.0,71,0.00,,,0.00,VWS V14.01,2013-06-19 10:50:00,
2013-06-19 05:55:00,62.1,52.9,28.70,ESE,112,2.9,3.8,72,0.00,,,0.00,VWS V14.01,2013-06-19 10:55:00,
2013-06-19 06:00:00,62.2,53.5,28.70,SE,135,3.1,3.6,73,0.00,,,0.00,VWS V14.01,2013-06-19 11:00:00,
2013-06-19 06:05:00,62.8,54.0,28.70,ESE,112,2.5,3.1,73,0.00,,,0.00,VWS V14.01,2013-06-19 11:05:00,
2013-06-19 06:10:00,63.1,54.0,28.73,SE,135,4.9,6.3,72,0.00,,,0.00,VWS V14.01,2013-06-19 11:10:00,
2013-06-19 06:15:00,63.5,53.9,28.73,SE,135,4.7,5.6,71,0.00,,,0.00,VWS V14.01,2013-06-19 11:15:00,
2013-06-19 06:20:00,63.9,53.9,28.73,ESE,112,2.7,4.7,70,0.00,,,0.00,VWS V14.01,2013-06-19 11:20:00,
2013-06-19 06:25:00,63.7,53.3,28.73,SE,135,2.5,4.3,69,0.00,,,0.00,VWS V14.01,2013-06-19 11:25:00,
2013-06-19 06:30:00,63.5,53.2,28.73,ESE,112,2.7,3.8,69,0.00,,,0.00,VWS V14.01,2013-06-19 11:30:00,
2013-06-19 06:35:00,63.7,53.7,28.73,ESE,112,3.4,6.9,70,0.00,,,0.00,VWS V14.01,2013-06-19 11:35:00,
2013-06-19 06:40:00,63.9,53.9,28.73,ESE,112,4.0,4.3,70,0.00,,,0.00,VWS V14.01,2013-06-19 11:40:00,
2013-06-19 06:45:00,64.0,54.1,28.73,ESE,112,2.9,4.9,70,0.00,,,0.00,VWS V14.01,2013-06-19 11:45:00,
2013-06-19 06:50:00,64.4,54.4,28.73,ESE,112,3.6,4.0,70,0.00,,,0.00,VWS V14.01,2013-06-19 11:50:00,
2013-06-19 06:55:00,64.8,54.8,28.73,ESE,112,4.5,5.4,70,0.00,,,0.00,VWS V14.01,2013-06-19 11:55:00,
2013-06-19 07:00:00,65.5,55.5,28.73,SE,135,4.3,5.6,70,0.00,,,0.00,VWS V14.01,2013-06-19 12:00:00,
2013-06-19 07:05:00,66.2,55.3,28.73,SE,135,3.8,6.3,68,0.00,,,0.00,VWS V14.01,2013-06-19 12:05:00,
2013-06-19 07:10:00,66.4,54.7,28.73,ESE,112,4.0,6.3,66,0.00,,,0.00,VWS V14.01,2013-06-19 12:10:00,
2013-06-19 07:15:00,67.3,54.3,28.73,ESE,112,8.7,10.1,63,0.00,,,0.00,VWS V14.01,2013-06-19 12:15:00,
2013-06-19 07:20:00,68.2,54.2,28.73,SE,135,6.3,9.0,61,0.00,,,0.00,VWS V14.01,2013-06-19 12:20:00,
2013-06-19 07:25:00,68.7,53.4,28.73,SE,135,6.5,10.7,58,0.00,,,0.00,VWS V14.01,2013-06-19 12:25:00,
2013-06-19 07:30:00,69.3,53.4,28.73,SE,135,8.7,10.5,57,0.00,,,0.00,VWS V14.01,2013-06-19 12:30:00,
2013-06-19 07:35:00,69.8,52.9,28.73,SE,135,5.8,9.4,55,0.00,,,0.00,VWS V14.01,2013-06-19 12:35:00,
2013-06-19 07:40:00,70.0,53.1,28.73,SSE,158,8.1,10.7,55,0.00,,,0.00,VWS V14.01,2013-06-19 12:40:00,
2013-06-19 07:45:00,70.3,53.4,28.73,SSE,158,8.1,11.0,55,0.00,,,0.00,VWS V14.01,2013-06-19 12:45:00,
2013-06-19 07:50:00,70.3,53.4,28.73,SSE,158,10.5,10.5,55,0.00,,,0.00,VWS V14.01,2013-06-19 12:50:00,
2013-06-19 07:55:00,70.5,53.6,28.73,SSE,158,6.3,10.5,55,0.00,,,0.00,VWS V14.01,2013-06-19 12:55:00,
2013-06-19 08:00:00,71.1,53.6,28.73,SSE,158,6.7,10.7,54,0.00,,,0.00,VWS V14.01,2013-06-19 13:00:00,
2013-06-19 08:05:00,71.6,53.1,28.73,SE,135,5.8,8.1,52,0.00,,,0.00,VWS V14.01,2013-06-19 13:05:00,
2013-06-19 08:10:00,72.0,52.9,28.73,ESE,112,6.5,7.4,51,0.00,,,0.00,VWS V14.01,2013-06-19 13:10:00,
2013-06-19 08:15:00,72.1,53.6,28.73,SE,135,5.6,6.5,52,0.00,,,0.00,VWS V14.01,2013-06-19 13:15:00,
2013-06-19 08:20:00,72.7,53.0,28.73,SE,135,6.0,7.8,50,0.00,,,0.00,VWS V14.01,2013-06-19 13:20:00,
2013-06-19 08:25:00,73.6,53.3,28.73,SSE,158,5.6,8.7,49,0.00,,,0.00,VWS V14.01,2013-06-19 13:25:00,
2013-06-19 08:30:00,73.9,52.5,28.73,SSE,158,6.5,8.1,47,0.00,,,0.00,VWS V14.01,2013-06-19 13:30:00,
2013-06-19 08:35:00,74.5,53.0,28.73,SSE,158,6.3,7.8,47,0.00,,,0.00,VWS V14.01,2013-06-19 13:35:00,
2013-06-19 08:40:00,75.0,52.9,28.73,SSE,158,7.6,7.6,46,0.00,,,0.00,VWS V14.01,2013-06-19 13:40:00,
2013-06-19 08:45:00,75.2,52.4,28.73,SSE,158,5.6,7.6,45,0.00,,,0.00,VWS V14.01,2013-06-19 13:45:00,
2013-06-19 08:50:00,75.9,52.5,28.73,SSE,158,6.3,7.8,44,0.00,,,0.00,VWS V14.01,2013-06-19 13:50:00,
2013-06-19 08:55:00,77.0,52.2,28.73,SSE,158,3.1,7.4,42,0.00,,,0.00,VWS V14.01,2013-06-19 13:55:00,
2013-06-19 09:00:00,78.3,52.7,28.73,SSE,158,6.7,7.8,41,0.00,,,0.00,VWS V14.01,2013-06-19 14:00:00,
2013-06-19 09:05:00,78.3,52.0,28.73,SSE,158,4.9,8.1,40,0.00,,,0.00,VWS V14.01,2013-06-19 14:05:00,
2013-06-19 09:10:00,79.7,51.9,28.73,SE,135,5.8,7.6,38,0.00,,,0.00,VWS V14.01,2013-06-19 14:10:00,
2013-06-19 09:15:00,79.3,50.8,28.73,SE,135,5.4,6.5,37,0.00,,,0.00,VWS V14.01,2013-06-19 14:15:00,
2013-06-19 09:20:00,79.3,50.8,28.73,SE,135,2.9,7.8,37,0.00,,,0.00,VWS V14.01,2013-06-19 14:20:00,
2013-06-19 09:25:00,80.8,51.4,28.73,South,180,4.3,7.6,36,0.00,,,0.00,VWS V14.01,2013-06-19 14:25:00,
2013-06-19 09:30:00,81.1,50.1,28.73,SSE,158,5.6,7.4,34,0.00,,,0.00,VWS V14.01,2013-06-19 14:30:00,
2013-06-19 09:35:00,82.0,50.9,28.73,SSE,158,3.8,7.2,34,0.00,,,0.00,VWS V14.01,2013-06-19 14:35:00,
2013-06-19 09:40:00,82.2,51.1,28.73,SSE,158,7.2,7.8,34,0.00,,,0.00,VWS V14.01,2013-06-19 14:40:00,
2013-06-19 09:45:00,82.8,50.8,28.73,ESE,112,4.9,10.1,33,0.00,,,0.00,VWS V14.01,2013-06-19 14:45:00,
2013-06-19 09:50:00,82.8,49.9,28.73,SSE,158,7.6,9.4,32,0.00,,,0.00,VWS V14.01,2013-06-19 14:50:00,
2013-06-19 09:55:00,83.5,49.7,28.73,SSE,158,3.8,7.8,31,0.00,,,0.00,VWS V14.01,2013-06-19 14:55:00,
2013-06-19 10:00:00,83.5,50.5,28.73,SE,135,5.6,9.4,32,0.00,,,0.00,VWS V14.01,2013-06-19 15:00:00,
2013-06-19 10:05:00,84.0,51.0,28.73,SSE,158,4.7,9.0,32,0.00,,,0.00,VWS V14.01,2013-06-19 15:05:00,
2013-06-19 10:10:00,84.4,51.3,28.70,SE,135,5.6,9.8,32,0.00,,,0.00,VWS V14.01,2013-06-19 15:10:00,
2013-06-19 10:15:00,84.6,50.6,28.70,SSE,158,10.3,10.3,31,0.00,,,0.00,VWS V14.01,2013-06-19 15:15:00,
2013-06-19 10:20:00,84.6,49.8,28.70,SSE,158,9.8,10.7,30,0.00,,,0.00,VWS V14.01,2013-06-19 15:20:00,
2013-06-19 10:25:00,84.7,49.9,28.70,SSE,158,7.6,12.1,30,0.00,,,0.00,VWS V14.01,2013-06-19 15:25:00,
2013-06-19 10:30:00,84.9,50.1,28.70,SSE,158,8.5,8.7,30,0.00,,,0.00,VWS V14.01,2013-06-19 15:30:00,
2013-06-19 10:35:00,84.7,49.0,28.70,SSE,158,10.7,13.2,29,0.00,,,0.00,VWS V14.01,2013-06-19 15:35:00,
2013-06-19 10:40:00,84.9,49.2,28.70,SE,135,10.3,12.8,29,0.00,,,0.00,VWS V14.01,2013-06-19 15:40:00,
2013-06-19 10:45:00,85.1,49.3,28.70,SSE,158,8.7,14.1,29,0.00,,,0.00,VWS V14.01,2013-06-19 15:45:00,
2013-06-19 10:50:00,84.9,49.2,28.70,SE,135,9.8,15.9,29,0.00,,,0.00,VWS V14.01,2013-06-19 15:50:00,
2013-06-19 10:55:00,85.5,48.7,28.70,SSE,158,12.5,14.3,28,0.00,,,0.00,VWS V14.01,2013-06-19 15:55:00,
2013-06-19 11:00:00,85.1,49.3,28.70,South,180,13.0,16.6,29,0.00,,,0.00,VWS V14.01,2013-06-19 16:00:00,
2013-06-19 11:05:00,84.7,48.1,28.70,SSE,158,10.3,15.7,28,0.00,,,0.00,VWS V14.01,2013-06-19 16:05:00,
2013-06-19 11:10:00,84.6,48.8,28.70,SSE,158,12.5,19.7,29,0.00,,,0.00,VWS V14.01,2013-06-19 16:10:00,
2013-06-19 11:15:00,84.6,48.8,28.70,South,180,15.2,16.6,29,0.00,,,0.00,VWS V14.01,2013-06-19 16:15:00,
2013-06-19 11:20:00,84.7,49.0,28.70,SSE,158,15.2,17.0,29,0.00,,,0.00,VWS V14.01,2013-06-19 16:20:00,
2013-06-19 11:25:00,85.3,49.5,28.70,SSE,158,12.5,19.9,29,0.00,,,0.00,VWS V14.01,2013-06-19 16:25:00,
2013-06-19 11:30:00,84.4,48.7,28.70,SSE,158,12.5,22.2,29,0.00,,,0.00,VWS V14.01,2013-06-19 16:30:00,
2013-06-19 11:35:00,84.7,49.0,28.70,South,180,19.2,19.5,29,0.00,,,0.00,VWS V14.01,2013-06-19 16:35:00,
2013-06-19 11:40:00,84.7,49.0,28.70,SE,135,10.5,20.8,29,0.00,,,0.00,VWS V14.01,2013-06-19 16:40:00,
2013-06-19 11:45:00,85.1,49.3,28.70,South,180,10.7,17.2,29,0.00,,,0.00,VWS V14.01,2013-06-19 16:45:00,
2013-06-19 11:50:00,85.8,49.9,28.70,SSE,158,13.0,17.7,29,0.00,,,0.00,VWS V14.01,2013-06-19 16:50:00,
2013-06-19 11:55:00,85.8,49.9,28.70,South,180,12.8,17.0,29,0.00,,,0.00,VWS V14.01,2013-06-19 16:55:00,
2013-06-19 12:00:00,85.6,49.8,28.70,SSW,202,8.7,20.8,29,0.00,,,0.00,VWS V14.01,2013-06-19 17:00:00,
2013-06-19 12:05:00,85.6,48.8,28.70,South,180,14.1,19.9,28,0.00,,,0.00,VWS V14.01,2013-06-19 17:05:00,
2013-06-19 12:10:00,85.6,48.8,28.70,SSE,158,14.3,18.1,28,0.00,,,0.00,VWS V14.01,2013-06-19 17:10:00,
2013-06-19 12:15:00,85.6,47.9,28.70,SSE,158,10.5,19.7,27,0.00,,,0.00,VWS V14.01,2013-06-19 17:15:00,
2013-06-19 12:20:00,86.4,48.5,28.70,SSE,158,9.8,18.1,27,0.00,,,0.00,VWS V14.01,2013-06-19 17:20:00,
2013-06-19 12:25:00,86.9,49.9,28.70,SSE,158,8.5,17.2,28,0.00,,,0.00,VWS V14.01,2013-06-19 17:25:00,
2013-06-19 12:30:00,87.1,47.0,28.70,South,180,11.4,15.9,25,0.00,,,0.00,VWS V14.01,2013-06-19 17:30:00,
2013-06-19 12:35:00,87.4,48.4,28.70,South,180,13.0,15.9,26,0.00,,,0.00,VWS V14.01,2013-06-19 17:35:00,
2013-06-19 12:40:00,86.2,46.3,28.70,SE,135,10.1,20.6,25,0.00,,,0.00,VWS V14.01,2013-06-19 17:40:00,
2013-06-19 12:45:00,85.8,46.0,28.70,ESE,112,12.3,19.2,25,0.00,,,0.00,VWS V14.01,2013-06-19 17:45:00,
2013-06-19 12:50:00,85.6,45.8,28.70,SSE,158,13.0,16.3,25,0.00,,,0.00,VWS V14.01,2013-06-19 17:50:00,
2013-06-19 12:55:00,85.1,44.3,28.70,SSE,158,14.8,17.2,24,0.00,,,0.00,VWS V14.01,2013-06-19 17:55:00,
2013-06-19 13:00:00,86.0,45.0,28.70,SSE,158,12.1,17.2,24,0.00,,,0.00,VWS V14.01,2013-06-19 18:00:00,
2013-06-19 13:05:00,86.0,45.0,28.70,South,180,12.3,17.5,24,0.00,,,0.00,VWS V14.01,2013-06-19 18:05:00,
2013-06-19 13:10:00,85.6,44.7,28.70,SSE,158,11.0,19.9,24,0.00,,,0.00,VWS V14.01,2013-06-19 18:10:00,
2013-06-19 13:15:00,85.5,43.5,28.70,SE,135,11.0,17.5,23,0.00,,,0.00,VWS V14.01,2013-06-19 18:15:00,
2013-06-19 13:20:00,87.6,45.3,28.70,ESE,112,13.2,17.7,23,0.00,,,0.00,VWS V14.01,2013-06-19 18:20:00,
2013-06-19 13:25:00,87.4,44.0,28.70,South,180,17.5,21.9,22,0.00,,,0.00,VWS V14.01,2013-06-19 18:25:00,
2013-06-19 13:30:00,86.5,43.2,28.70,SSE,158,17.5,19.9,22,0.00,,,0.00,VWS V14.01,2013-06-19 18:30:00,
2013-06-19 13:35:00,87.1,43.7,28.70,South,180,19.9,20.4,22,0.00,,,0.00,VWS V14.01,2013-06-19 18:35:00,
2013-06-19 13:40:00,89.1,45.3,28.67,South,180,18.8,19.9,22,0.00,,,0.00,VWS V14.01,2013-06-19 18:40:00,
2013-06-19 13:45:00,88.3,43.5,28.67,SSE,158,12.8,20.1,21,0.00,,,0.00,VWS V14.01,2013-06-19 18:45:00,
2013-06-19 13:50:00,86.9,43.5,28.67,SSE,158,17.5,17.7,22,0.00,,,0.00,VWS V14.01,2013-06-19 18:50:00,
2013-06-19 13:55:00,86.5,43.2,28.70,SSE,158,12.5,17.5,22,0.00,,,0.00,VWS V14.01,2013-06-19 18:55:00,
2013-06-19 14:00:00,87.8,43.0,28.70,SSE,158,15.2,20.8,21,0.00,,,0.00,VWS V14.01,2013-06-19 19:00:00,
2013-06-19 14:05:00,88.9,43.9,28.70,SSE,158,15.4,24.2,21,0.00,,,0.00,VWS V14.01,2013-06-19 19:05:00,
2013-06-19 14:10:00,88.2,43.3,28.67,South,180,13.2,20.6,21,0.00,,,0.00,VWS V14.01,2013-06-19 19:10:00,
2013-06-19 14:15:00,88.5,43.6,28.67,South,180,14.1,22.4,21,0.00,,,0.00,VWS V14.01,2013-06-19 19:15:00,
2013-06-19 14:20:00,88.0,43.2,28.67,SSE,158,17.7,22.4,21,0.00,,,0.00,VWS V14.01,2013-06-19 19:20:00,
2013-06-19 14:25:00,88.0,43.2,28.67,SSE,158,14.5,22.4,21,0.00,,,0.00,VWS V14.01,2013-06-19 19:25:00,
2013-06-19 14:30:00,88.7,45.0,28.67,SSE,158,17.7,19.5,22,0.00,,,0.00,VWS V14.01,2013-06-19 19:30:00,
2013-06-19 14:35:00,87.6,42.9,28.67,South,180,10.3,20.8,21,0.00,,,0.00,VWS V14.01,2013-06-19 19:35:00,
2013-06-19 14:40:00,88.2,43.3,28.67,SSE,158,17.7,17.7,21,0.00,,,0.00,VWS V14.01,2013-06-19 19:40:00,
2013-06-19 14:45:00,87.3,43.8,28.67,SSE,158,12.5,20.6,22,0.00,,,0.00,VWS V14.01,2013-06-19 19:45:00,
2013-06-19 14:50:00,87.3,45.0,28.67,SE,135,12.8,21.9,23,0.00,,,0.00,VWS V14.01,2013-06-19 19:50:00,
2013-06-19 14:55:00,85.8,44.9,28.67,SSE,158,17.2,17.7,24,0.00,,,0.00,VWS V14.01,2013-06-19 19:55:00,
2013-06-19 15:00:00,85.5,44.6,28.67,South,180,19.2,20.6,24,0.00,,,0.00,VWS V14.01,2013-06-19 20:00:00,
2013-06-19 15:05:00,85.1,45.4,28.67,South,180,10.7,19.2,25,0.00,,,0.00,VWS V14.01,2013-06-19 20:05:00,
2013-06-19 15:10:00,85.3,46.5,28.67,SSE,158,12.1,17.5,26,0.00,,,0.00,VWS V14.01,2013-06-19 20:10:00,
2013-06-19 15:15:00,86.9,45.8,28.67,SSE,158,15.2,20.8,24,0.00,,,0.00,VWS V14.01,2013-06-19 20:15:00,
2013-06-19 15:20:00,87.4,46.2,28.67,SSE,158,15.2,20.4,24,0.00,,,0.00,VWS V14.01,2013-06-19 20:20:00,
2013-06-19 15:25:00,87.6,46.4,28.67,SSE,158,15.2,19.7,24,0.00,,,0.00,VWS V14.01,2013-06-19 20:25:00,
2013-06-19 15:30:00,88.3,47.0,28.67,South,180,13.0,19.9,24,0.00,,,0.00,VWS V14.01,2013-06-19 20:30:00,
2013-06-19 15:35:00,87.3,46.1,28.67,SSE,158,17.5,19.9,24,0.00,,,0.00,VWS V14.01,2013-06-19 20:35:00,
2013-06-19 15:40:00,86.7,45.7,28.67,SSE,158,12.3,19.5,24,0.00,,,0.00,VWS V14.01,2013-06-19 20:40:00,
2013-06-19 15:45:00,87.6,46.4,28.67,South,180,15.4,20.8,24,0.00,,,0.00,VWS V14.01,2013-06-19 20:45:00,
2013-06-19 15:50:00,87.6,46.4,28.67,SSW,202,15.4,18.6,24,0.00,,,0.00,VWS V14.01,2013-06-19 20:50:00,
2013-06-19 15:55:00,87.1,46.0,28.67,SSE,158,13.9,17.5,24,0.00,,,0.00,VWS V14.01,2013-06-19 20:55:00,
2013-06-19 16:00:00,88.5,48.2,28.67,SE,135,13.0,22.6,25,0.00,,,0.00,VWS V14.01,2013-06-19 21:00:00,
2013-06-19 16:05:00,87.1,47.0,28.67,SSE,158,11.0,19.0,25,0.00,,,0.00,VWS V14.01,2013-06-19 21:05:00,
2013-06-19 16:10:00,86.0,46.1,28.67,SE,135,15.4,19.7,25,0.00,,,0.00,VWS V14.01,2013-06-19 21:10:00,
2013-06-19 16:15:00,86.2,46.3,28.67,South,180,17.7,19.9,25,0.00,,,0.00,VWS V14.01,2013-06-19 21:15:00,
2013-06-19 16:20:00,87.1,48.1,28.67,SSE,158,14.8,22.8,26,0.00,,,0.00,VWS V14.01,2013-06-19 21:20:00,
2013-06-19 16:25:00,86.4,47.5,28.67,SSE,158,11.0,22.2,26,0.00,,,0.00,VWS V14.01,2013-06-19 21:25:00,
2013-06-19 16:30:00,87.4,47.3,28.67,SSE,158,13.4,23.7,25,0.00,,,0.00,VWS V14.01,2013-06-19 21:30:00,
2013-06-19 16:35:00,88.5,49.3,28.67,SSE,158,13.0,18.1,26,0.00,,,0.00,VWS V14.01,2013-06-19 21:35:00,
2013-06-19 16:40:00,88.2,47.9,28.67,SSE,158,12.8,22.4,25,0.00,,,0.00,VWS V14.01,2013-06-19 21:40:00,
2013-06-19 16:45:00,88.9,47.5,28.67,SSE,158,15.2,17.2,24,0.00,,,0.00,VWS V14.01,2013-06-19 21:45:00,
2013-06-19 16:50:00,88.2,46.9,28.67,SSE,158,17.9,21.9,24,0.00,,,0.00,VWS V14.01,2013-06-19 21:50:00,
2013-06-19 16:55:00,87.8,46.5,28.64,SSE,158,19.9,22.8,24,0.00,,,0.00,VWS V14.01,2013-06-19 21:55:00,
2013-06-19 17:00:00,88.3,47.0,28.64,SSE,158,15.7,19.9,24,0.00,,,0.00,VWS V14.01,2013-06-19 22:00:00,
2013-06-19 17:05:00,88.5,47.2,28.64,South,180,15.4,23.5,24,0.00,,,0.00,VWS V14.01,2013-06-19 22:05:00,
2013-06-19 17:10:00,86.9,45.8,28.64,SSE,158,15.9,23.7,24,0.00,,,0.00,VWS V14.01,2013-06-19 22:10:00,
2013-06-19 17:15:00,86.5,45.5,28.64,SSE,158,16.6,21.9,24,0.00,,,0.00,VWS V14.01,2013-06-19 22:15:00,
2013-06-19 17:20:00,87.1,48.1,28.64,SSE,158,19.9,23.7,26,0.00,,,0.00,VWS V14.01,2013-06-19 22:20:00,
2013-06-19 17:25:00,86.9,46.9,28.64,SSE,158,13.0,20.8,25,0.00,,,0.00,VWS V14.01,2013-06-19 22:25:00,
2013-06-19 17:30:00,86.7,47.8,28.64,SSE,158,13.9,23.3,26,0.00,,,0.00,VWS V14.01,2013-06-19 22:30:00,
2013-06-19 17:35:00,86.9,47.9,28.64,South,180,13.0,23.3,26,0.00,,,0.00,VWS V14.01,2013-06-19 22:35:00,
2013-06-19 17:40:00,86.9,46.9,28.64,SE,135,14.3,25.7,25,0.00,,,0.00,VWS V14.01,2013-06-19 22:40:00,
2013-06-19 17:45:00,86.5,46.6,28.64,SE,135,12.8,23.5,25,0.00,,,0.00,VWS V14.01,2013-06-19 22:45:00,
2013-06-19 17:50:00,86.7,47.8,28.64,SSE,158,13.9,26.4,26,0.00,,,0.00,VWS V14.01,2013-06-19 22:50:00,
2013-06-19 17:55:00,86.9,47.9,28.64,SSE,158,16.1,20.1,26,0.00,,,0.00,VWS V14.01,2013-06-19 22:55:00,
2013-06-19 18:00:00,86.7,47.8,28.64,SSW,202,16.6,21.3,26,0.00,,,0.00,VWS V14.01,2013-06-19 23:00:00,
2013-06-19 18:05:00,86.5,46.6,28.64,SSE,158,18.8,22.8,25,0.00,,,0.00,VWS V14.01,2013-06-19 23:05:00,
2013-06-19 18:10:00,86.0,46.1,28.64,South,180,16.3,23.0,25,0.00,,,0.00,VWS V14.01,2013-06-19 23:10:00,
2013-06-19 18:15:00,86.0,47.2,28.64,SE,135,15.4,24.4,26,0.00,,,0.00,VWS V14.01,2013-06-19 23:15:00,
2013-06-19 18:20:00,86.0,47.2,28.64,SSE,158,21.9,22.2,26,0.00,,,0.00,VWS V14.01,2013-06-19 23:20:00,
2013-06-19 18:25:00,85.8,48.0,28.64,South,180,11.0,21.9,27,0.00,,,0.00,VWS V14.01,2013-06-19 23:25:00,
2013-06-19 18:30:00,85.3,47.5,28.64,South,180,17.7,22.8,27,0.00,,,0.00,VWS V14.01,2013-06-19 23:30:00,
2013-06-19 18:35:00,84.2,46.6,28.64,SSE,158,15.7,18.1,27,0.00,,,0.00,VWS V14.01,2013-06-19 23:35:00,
2013-06-19 18:40:00,84.7,47.1,28.64,South,180,19.9,22.4,27,0.00,,,0.00,VWS V14.01,2013-06-19 23:40:00,
2013-06-19 18:45:00,84.9,47.2,28.64,SSE,158,15.2,23.7,27,0.00,,,0.00,VWS V14.01,2013-06-19 23:45:00,
2013-06-19 18:50:00,84.9,47.2,28.64,South,180,20.4,23.9,27,0.00,,,0.00,VWS V14.01,2013-06-19 23:50:00,
2013-06-19 18:55:00,84.6,46.9,28.64,South,180,22.6,23.5,27,0.00,,,0.00,VWS V14.01,2013-06-19 23:55:00,
2013-06-19 19:00:00,83.8,47.3,28.64,SSE,158,22.6,22.6,28,0.00,,,0.00,VWS V14.01,2013-06-20 00:00:00,
2013-06-19 19:05:00,83.1,47.6,28.64,SSE,158,14.8,23.0,29,0.00,,,0.00,VWS V14.01,2013-06-20 00:05:00,
2013-06-19 19:10:00,83.1,47.6,28.64,South,180,19.7,25.3,29,0.00,,,0.00,VWS V14.01,2013-06-20 00:10:00,
2013-06-19 19:15:00,82.9,47.5,28.64,SSE,158,12.8,20.1,29,0.00,,,0.00,VWS V14.01,2013-06-20 00:15:00,
2013-06-19 19:20:00,83.1,47.6,28.64,South,180,16.1,19.7,29,0.00,,,0.00,VWS V14.01,2013-06-20 00:20:00,
2013-06-19 19:25:00,83.5,48.8,28.64,SSE,158,16.3,23.3,30,0.00,,,0.00,VWS V14.01,2013-06-20 00:25:00,
2013-06-19 19:30:00,82.9,48.3,28.64,South,180,21.9,21.9,30,0.00,,,0.00,VWS V14.01,2013-06-20 00:30:00,
2013-06-19 19:35:00,82.6,48.0,28.64,SSE,158,17.7,21.9,30,0.00,,,0.00,VWS V14.01,2013-06-20 00:35:00,
2013-06-19 19:40:00,82.4,47.9,28.64,South,180,18.8,24.4,30,0.00,,,0.00,VWS V14.01,2013-06-20 00:40:00,
2013-06-19 19:45:00,82.2,48.6,28.64,SSE,158,17.5,20.8,31,0.00,,,0.00,VWS V14.01,2013-06-20 00:45:00,
2013-06-19 19:50:00,81.5,48.0,28.64,SE,135,15.4,20.1,31,0.00,,,0.00,VWS V14.01,2013-06-20 00:50:00,
2013-06-19 19:55:00,81.3,48.7,28.64,SSE,158,14.5,17.2,32,0.00,,,0.00,VWS V14.01,2013-06-20 00:55:00,
2013-06-19 20:00:00,81.5,48.8,28.64,SSE,158,15.2,18.1,32,0.00,,,0.00,VWS V14.01,2013-06-20 01:00:00,
2013-06-19 20:05:00,81.3,48.7,28.64,SSE,158,20.1,20.8,32,0.00,,,0.00,VWS V14.01,2013-06-20 01:05:00,
2013-06-19 20:10:00,81.1,48.5,28.64,SSE,158,16.1,20.1,32,0.00,,,0.00,VWS V14.01,2013-06-20 01:10:00,
2013-06-19 20:15:00,80.8,49.0,28.64,SSE,158,15.7,19.7,33,0.00,,,0.00,VWS V14.01,2013-06-20 01:15:00,
2013-06-19 20:20:00,80.2,49.3,28.64,SSE,158,17.7,17.7,34,0.00,,,0.00,VWS V14.01,2013-06-20 01:20:00,
2013-06-19 20:25:00,79.9,49.0,28.64,SSE,158,16.8,18.1,34,0.00,,,0.00,VWS V14.01,2013-06-20 01:25:00,
2013-06-19 20:30:00,79.7,48.9,28.64,SSE,158,14.5,17.7,34,0.00,,,0.00,VWS V14.01,2013-06-20 01:30:00,
2013-06-19 20:35:00,79.3,48.6,28.64,SSE,158,13.9,17.5,34,0.00,,,0.00,VWS V14.01,2013-06-20 01:35:00,
2013-06-19 20:40:00,79.2,49.2,28.64,SSE,158,10.7,17.7,35,0.00,,,0.00,VWS V14.01,2013-06-20 01:40:00,
2013-06-19 20:45:00,78.6,49.5,28.64,SSE,158,15.4,15.4,36,0.00,,,0.00,VWS V14.01,2013-06-20 01:45:00,
2013-06-19 20:50:00,78.4,49.3,28.64,South,180,17.0,17.7,36,0.00,,,0.00,VWS V14.01,2013-06-20 01:50:00,
2013-06-19 20:55:00,78.1,49.7,28.64,SSE,158,12.3,19.9,37,0.00,,,0.00,VWS V14.01,2013-06-20 01:55:00,
2013-06-19 21:00:00,78.1,49.7,28.64,SSE,158,12.3,17.5,37,0.00,,,0.00,VWS V14.01,2013-06-20 02:00:00,
2013-06-19 21:05:00,77.7,50.1,28.64,SE,135,13.6,15.4,38,0.00,,,0.00,VWS V14.01,2013-06-20 02:05:00,
2013-06-19 21:10:00,77.5,50.7,28.64,SE,135,8.1,15.2,39,0.00,,,0.00,VWS V14.01,2013-06-20 02:10:00,
2013-06-19 21:15:00,77.2,51.0,28.64,SSE,158,12.5,14.5,40,0.00,,,0.00,VWS V14.01,2013-06-20 02:15:00,
2013-06-19 21:20:00,77.0,50.9,28.64,SSE,158,11.0,14.1,40,0.00,,,0.00,VWS V14.01,2013-06-20 02:20:00,
2013-06-19 21:25:00,76.8,51.4,28.64,SSE,158,7.8,14.3,41,0.00,,,0.00,VWS V14.01,2013-06-20 02:25:00,
2013-06-19 21:30:00,76.5,51.7,28.64,SSE,158,13.6,13.6,42,0.00,,,0.00,VWS V14.01,2013-06-20 02:30:00,
2013-06-19 21:35:00,76.5,51.7,28.64,SE,135,8.1,15.2,42,0.00,,,0.00,VWS V14.01,2013-06-20 02:35:00,
2013-06-19 21:40:00,76.3,51.5,28.64,SSE,158,10.3,14.3,42,0.00,,,0.00,VWS V14.01,2013-06-20 02:40:00,
2013-06-19 21:45:00,76.1,51.4,28.64,ESE,112,10.7,13.0,42,0.00,,,0.00,VWS V14.01,2013-06-20 02:45:00,
2013-06-19 21:50:00,75.9,51.8,28.64,SE,135,10.7,13.0,43,0.00,,,0.00,VWS V14.01,2013-06-20 02:50:00,
2013-06-19 21:55:00,75.7,51.7,28.67,SE,135,9.0,13.2,43,0.00,,,0.00,VWS V14.01,2013-06-20 02:55:00,
2013-06-19 22:00:00,75.7,51.7,28.67,SSE,158,10.1,14.8,43,0.00,,,0.00,VWS V14.01,2013-06-20 03:00:00,
2013-06-19 22:05:00,75.6,51.5,28.67,SSE,158,10.5,15.4,43,0.00,,,0.00,VWS V14.01,2013-06-20 03:05:00,
2013-06-19 22:10:00,75.6,51.5,28.67,SSE,158,15.7,15.7,43,0.00,,,0.00,VWS V14.01,2013-06-20 03:10:00,
2013-06-19 22:15:00,75.4,52.0,28.67,SSE,158,8.5,15.7,44,0.00,,,0.00,VWS V14.01,2013-06-20 03:15:00,
2013-06-19 22:20:00,75.2,51.8,28.67,SSE,158,12.5,15.7,44,0.00,,,0.00,VWS V14.01,2013-06-20 03:20:00,
2013-06-19 22:25:00,75.0,52.3,28.67,SE,135,13.0,13.4,45,0.00,,,0.00,VWS V14.01,2013-06-20 03:25:00,
2013-06-19 22:30:00,74.8,52.1,28.67,SE,135,8.5,13.2,45,0.00,,,0.00,VWS V14.01,2013-06-20 03:30:00,
2013-06-19 22:35:00,74.7,51.9,28.67,SSE,158,8.1,13.0,45,0.00,,,0.00,VWS V14.01,2013-06-20 03:35:00,
2013-06-19 22:40:00,74.7,52.5,28.67,SE,135,9.8,14.8,46,0.00,,,0.00,VWS V14.01,2013-06-20 03:40:00,
2013-06-19 22:45:00,74.5,52.4,28.67,SE,135,10.5,13.2,46,0.00,,,0.00,VWS V14.01,2013-06-20 03:45:00,
2013-06-19 22:50:00,74.3,52.2,28.67,SE,135,8.1,13.2,46,0.00,,,0.00,VWS V14.01,2013-06-20 03:50:00,
2013-06-19 22:55:00,74.1,52.6,28.67,ESE,112,10.3,12.8,47,0.00,,,0.00,VWS V14.01,2013-06-20 03:55:00,
2013-06-19 23:00:00,73.9,52.5,28.67,SE,135,7.8,14.8,47,0.00,,,0.00,VWS V14.01,2013-06-20 04:00:00,
2013-06-19 23:05:00,73.9,52.5,28.67,SSE,158,10.1,15.2,47,0.00,,,0.00,VWS V14.01,2013-06-20 04:05:00,
2013-06-19 23:10:00,74.1,53.2,28.67,SE,135,10.5,17.7,48,0.00,,,0.00,VWS V14.01,2013-06-20 04:10:00,
2013-06-19 23:15:00,73.9,53.0,28.67,SSE,158,14.3,14.3,48,0.00,,,0.00,VWS V14.01,2013-06-20 04:15:00,
2013-06-19 23:20:00,73.9,53.0,28.67,SSE,158,10.1,15.4,48,0.00,,,0.00,VWS V14.01,2013-06-20 04:20:00,
2013-06-19 23:25:00,73.8,53.4,28.67,SE,135,7.4,15.4,49,0.00,,,0.00,VWS V14.01,2013-06-20 04:25:00,
2013-06-19 23:30:00,73.8,53.4,28.67,SSE,158,15.2,15.2,49,0.00,,,0.00,VWS V14.01,2013-06-20 04:30:00,
2013-06-19 23:35:00,73.8,54.0,28.67,SE,135,11.0,17.0,50,0.00,,,0.00,VWS V14.01,2013-06-20 04:35:00,
2013-06-19 23:40:00,73.8,54.0,28.70,SSE,158,10.3,15.7,50,0.00,,,0.00,VWS V14.01,2013-06-20 04:40:00,
2013-06-19 23:45:00,73.6,53.8,28.70,SSE,158,14.1,14.1,50,0.00,,,0.00,VWS V14.01,2013-06-20 04:45:00,
2013-06-19 23:50:00,73.4,54.2,28.70,SE,135,8.7,14.1,51,0.00,,,0.00,VWS V14.01,2013-06-20 04:50:00,
2013-06-19 23:55:00,73.2,54.0,28.67,SE,135,12.5,15.4,51,0.00,,,0.00,VWS V14.01,2013-06-20 04:55:00,